Temp
-0 -0 -0 -1 -2 -3 -3 -3 -3 -3 -3 -4 -4 -4 -4 -3 -3 -3 -4 -3 -4 -4 -4 -4 -4 -4 -3
-0 -1 -1 -1 -1 -2 -2 -3 -3 -3 -3 -4 -4 -4 -3 -3 -4 -4 -4 -4 -4 -4 -4 -4 -4 -4 -4
-1 -1 -1 -1 -1 -2 -3 -4 -4 -5 -5 -4 -4 -3 -3 -3 -4 -4 -4 -4 -5 -4 -4 -5 -5 -5 -5
-0 -0 -1 -1 -1 -1 -2 -2 -2 -2 -3 -3 -3 -3 -3 -3 -4 -3 -4 -4 -4 -5 -5 -6 -5 -5 -6
-0 -0 -0 -0 -0 -1 -1 -2 -2 -3 -3 -3 -3 -4 -4 -4 -4 -4 -5 -5 -6 -6 -7 -6 -6 -6 -6
-0 -0 -0 -0 -0 -1 -1 -1 -1 -2 -3 -3 -3 -4 -4 -4 -5 -5 -6 -7 -7 -7 -7 -7 -7 -7 -7
-1 -1 -1 -1 -1 -1 -1 -2 -2 -2 -3 -3 -3 -3 -4 -5 -6 -7 -8 -8 -8 -8 -8 -8 -8 -8 -7
-1 -1 -1 -1 -1 -1 -2 -2 -2 -3 -3 -4 -4 -5 -6 -7 -8 -8 -8 -8 -8 -8 -8 -8 -8 -8 -8
-2 -2 -2 -2 -2 -2 -3 -3 -4 -4 -5 -5 -6 -7 -7 -8 -8 -8 -8 -8 -8 -8 -8 -8 -8 -9 -9
-2 -2 -2 -3 -3 -4 -4 -5 -5 -6 -6 -7 -8 -8 -8 -8 -8 -8 -9 -8 -8 -8 -9 -9 -9 -9 -9
-3 -3 -3 -3 -4 -4 -5 -6 -6 -7 -8 -8 -9 -9 -9 -9 -10 -10 -10 -9 -9 -9 -9 -9 -9 -9 -9
-3 -3 -3 -4 -5 -5 -6 -7 -8 -8 -9 -9 -9 -9 -9 -9 -9 -10 -10 -10 -10 -10 -10 -10 -10 -10 -10
-4 -4 -4 -5 -6 -6 -7 -8 -9 -9 -10 -10 -10 -10 -9 -10 -9 -10 -10 -11 -11 -11 -10 -10 -10 -10 -10
-4 -5 -5 -5 -6 -7 -8 -9 -9 -10 -10 -10 -10 -10 -10 -10 -10 -10 -11 -11 -11 -11 -11 -11 -11 -11 -11
-5 -5 -6 -6 -7 -8 -9 -9 -10 -10 -11 -11 -11 -10 -10 -10 -10 -11 -11 -11 -11 -11 -11 -11 -11 -11 -12
-6 -6 -6 -7 -8 -8 -9 -10 -10 -11 -11 -11 -11 -11 -11 -11 -11 -11 -11 -11 -12 -12 -11 -11 -11 -12 -11
-7 -7 -7 -8 -8 -9 -10 -10 -11 -11 -11 -12 -12 -12 -11 -11 -11 -11 -12 -13 -12 -12 -12 -12 -11 -11 -11
Height
3065 3065 3063 3061 3059 3057 3055 3054 3053 3053 3053 3053 3052 3052 3051 3052 3054 3054 3055 3055 3056 3056 3056 3056 3057 3059 3061
3061 3060 3058 3055 3053 3051 3050 3049 3048 3049 3049 3047 3047 3046 3045 3046 3047 3048 3048 3048 3048 3048 3048 3050 3051 3051 3052
3057 3055 3053 3051 3047 3046 3045 3045 3043 3043 3042 3041 3040 3039 3040 3041 3041 3041 3041 3042 3041 3041 3041 3043 3043 3043 3044
3053 3051 3049 3047 3044 3043 3041 3039 3038 3038 3037 3037 3035 3034 3033 3033 3032 3032 3032 3032 3032 3032 3032 3033 3034 3036 3038
3049 3047 3044 3042 3040 3038 3035 3033 3032 3031 3030 3029 3028 3027 3027 3027 3027 3026 3026 3025 3024 3024 3025 3027 3028 3031 3032
3045 3043 3040 3037 3034 3032 3030 3028 3026 3024 3022 3020 3019 3018 3018 3018 3017 3016 3016 3016 3017 3019 3021 3022 3023 3024 3025
3040 3037 3035 3032 3029 3026 3023 3021 3020 3018 3017 3014 3013 3012 3010 3010 3009 3009 3010 3012 3013 3015 3016 3017 3018 3018 3018
3034 3031 3028 3026 3023 3020 3018 3016 3014 3011 3009 3008 3006 3005 3005 3005 3005 3006 3007 3008 3010 3011 3011 3011 3011 3011 3011
3028 3026 3023 3020 3016 3014 3012 3010 3008 3006 3004 3003 3002 3001 3002 3002 3001 3001 3001 3002 3002 3002 3002 3002 3003 3003 3004
3023 3020 3017 3014 3012 3009 3007 3004 3003 3001 3000 2999 2996 2996 2996 2996 2995 2995 2995 2994 2994 2994 2995 2995 2995 2996 2996
3017 3014 3011 3009 3006 3003 3001 2999 2997 2995 2994 2993 2992 2991 2990 2990 2989 2988 2988 2987 2986 2986 2987 2987 2987 2987 2987
3013 3010 3007 3004 3001 2999 2996 2994 2992 2990 2987 2987 2987 2986 2985 2985 2985 2983 2980 2979 2978 2978 2978 2978 2978 2977 2977
3008 3005 3002 2998 2995 2993 2991 2989 2987 2984 2983 2981 2980 2980 2979 2979 2978 2977 2975 2974 2971 2970 2969 2969 2969 2968 2968
3002 2998 2995 2992 2989 2986 2984 2982 2981 2978 2976 2975 2974 2973 2973 2972 2970 2971 2968 2966 2966 2963 2961 2961 2961 2960 2958
2995 2992 2989 2986 2983 2980 2978 2976 2974 2972 2969 2967 2966 2965 2965 2964 2963 2961 2960 2958 2956 2955 2952 2952 2953 2952 2949
2989 2986 2983 2979 2976 2973 2970 2969 2967 2965 2963 2960 2958 2956 2956 2957 2953 2952 2951 2948 2947 2945 2943 2941 2944 2943 2939
2983 2979 2975 2972 2969 2966 2962 2960 2959 2957 2955 2952 2949 2945 2945 2945 2947 2942 2940 2938 2936 2935 2933 2931 2930 2934 2930
Wind_Speed
29 28 28 27 21 19 19 20 18 21 19 17 19 20 19 23 27 27 26 28 28 28 29 28 28 30 31
26 28 27 25 21 18 11 17 15 17 21 20 20 21 20 23 25 27 28 28 27 28 30 32 32 33 33
21 23 23 24 19 17 18 20 18 18 20 22 21 21 22 24 25 26 27 30 31 33 32 33 33 28 22
16 17 16 19 17 18 17 17 17 18 20 21 22 23 25 28 30 32 33 35 36 36 33 26 22 20 21
19 19 21 22 22 23 24 24 24 25 26 26 27 29 31 32 33 35 37 36 33 26 20 20 20 21 21
20 21 21 22 22 22 22 23 26 25 27 28 28 29 30 30 30 30 29 23 18 18 19 20 20 20 20
22 22 23 23 23 23 23 23 23 23 23 24 24 25 25 23 21 18 17 17 18 19 19 20 21 21 20
23 24 24 24 24 24 23 22 21 20 20 20 19 18 16 14 14 15 17 19 20 21 22 23 22 22 21
24 24 24 24 25 24 22 20 19 18 18 16 16 14 12 13 15 17 19 21 23 24 24 23 22 22 20
23 23 23 23 22 22 21 20 19 18 17 13 13 14 14 15 17 19 21 23 25 26 25 24 24 23 23
24 24 25 25 24 23 22 21 21 20 17 14 13 16 17 18 19 21 22 25 26 28 27 27 27 26 25
24 25 26 26 25 24 23 22 20 19 20 18 15 18 19 20 19 21 26 27 28 29 29 30 29 29 29
24 25 25 25 25 24 23 22 21 21 21 21 20 20 21 21 21 21 23 25 29 30 31 32 31 31 30
26 26 26 26 25 25 23 23 21 22 24 24 23 23 23 24 23 20 24 26 27 29 32 31 31 31 31
28 28 28 27 26 25 24 23 22 23 25 28 27 25 26 26 25 25 25 27 27 29 33 32 29 29 30
28 29 28 28 27 26 26 25 23 24 25 28 30 30 29 27 30 27 27 26 27 30 32 33 27 25 28
29 29 29 28 27 27 27 27 26 26 26 29 31 35 34 31 27 30 29 28 30 31 31 32 31 24 28
Wind_Direction
301 300 301 302 298 294 300 300 305 279 273 276 281 280 273 269 271 275 274 277 275 275 273 271 269 267 266
300 303 298 298 294 297 283 304 286 277 278 281 278 278 283 280 279 276 274 273 272 269 268 272 272 270 270
301 299 298 301 302 300 298 298 293 283 281 283 280 278 274 276 276 275 274 272 272 271 271 272 272 264 253
317 317 312 319 317 317 315 309 305 296 289 284 284 283 283 282 282 279 278 276 274 274 273 266 252 255 259
319 317 313 313 310 307 306 303 300 296 292 289 286 280 277 276 275 274 273 273 272 267 254 254 257 257 257
315 313 312 311 310 307 304 300 298 294 293 292 291 291 289 286 283 279 274 267 257 255 257 259 262 264 263
312 313 310 308 306 305 302 298 294 292 290 288 289 288 288 287 281 271 267 267 268 268 267 268 267 267 266
315 315 312 310 308 307 304 299 296 295 295 295 297 291 287 280 272 270 269 269 270 269 269 271 272 273 271
315 314 312 312 310 308 305 303 303 303 302 300 298 295 288 277 273 273 274 275 276 276 278 280 281 278 273
317 317 317 315 312 309 306 304 301 299 299 301 298 293 289 284 281 279 278 278 278 279 281 283 284 282 280
320 321 320 318 315 310 306 303 301 300 297 294 286 283 284 284 284 282 279 279 280 281 281 281 281 282 283
319 319 318 316 313 308 304 300 297 293 292 292 285 283 285 284 283 276 280 281 281 283 287 287 288 287 286
316 316 314 313 310 306 303 300 296 291 289 290 291 290 289 288 284 280 273 269 275 278 279 281 282 284 286
316 315 314 311 308 305 300 297 293 289 289 289 288 288 288 288 286 284 278 272 270 272 271 273 277 281 284
316 315 312 309 306 304 301 297 294 290 290 291 291 288 287 287 287 286 280 280 277 272 273 273 275 278 279
315 313 311 309 307 304 301 299 295 290 289 288 289 288 288 288 291 289 285 282 276 274 276 278 277 278 281
312 312 312 311 308 304 299 297 296 293 291 289 289 289 289 289 286 291 291 284 280 280 281 282 284 282 279